CAPE
0 0 0 0 0 0 0 0 0 0 0 0 0 0 0 0 0 0 0 0 0 0 0 0 0 0 0 0 0 0 0 0 0 0 0 0 0 0 0 0 0 0 0
0 0 0 0 0 0 0 0 0 0 0 0 0 0 0 0 0 0 0 0 0 0 0 0 0 0 0 0 0 0 0 0 0 0 0 0 0 0 0 0 1 11 22
0 0 0 0 0 0 0 0 0 0 0 0 0 0 0 0 0 0 0 0 0 0 0 0 0 0 0 0 0 0 0 0 3 6 0 0 0 0 0 1 0 0 0
0 0 0 0 0 0 0 0 0 0 0 0 0 0 0 0 0 0 0 0 0 0 0 0 0 0 0 0 0 0 2 0 0 0 2 4 2 0 0 0 0 0 0
0 0 0 0 0 0 0 0 0 0 0 0 0 0 0 0 0 0 0 0 0 0 0 0 0 0 0 2 5 0 0 0 0 1 0 0 0 0 0 0 0 0 0
0 0 0 0 0 0 0 0 0 0 0 0 0 0 0 0 0 0 0 0 0 0 0 0 0 0 0 4 4 10 4 6 2 4 0 0 0 0 0 0 0 5 0
0 0 0 0 0 0 0 0 0 0 0 0 0 0 0 0 0 0 0 0 0 0 0 0 0 0 0 0 0 3 0 8 2 0 0 0 0 0 0 1 0 1 2
0 0 0 0 0 0 0 0 0 0 0 0 0 0 0 0 0 0 0 0 0 0 0 0 0 0 0 6 3 8 0 0 0 0 0 0 3 1 0 0 0 0 0
0 0 0 0 0 0 0 0 0 0 0 0 0 0 0 0 0 0 0 0 0 0 0 0 1 6 5 15 21 0 0 0 0 0 15 3 0 0 0 0 0 1 0
0 0 0 0 0 0 0 0 0 0 0 0 0 0 0 0 0 0 0 0 0 0 0 0 0 3 8 31 1 0 0 0 0 0 0 0 0 0 0 0 0 0 0
0 0 0 0 0 0 0 0 0 0 0 0 0 0 0 0 0 0 0 0 0 1 0 0 0 6 21 5 4 0 0 6 0 0 0 0 0 0 0 0 0 0 0
0 0 0 0 0 0 0 0 0 0 0 0 0 0 0 0 0 0 0 3 5 0 1 0 0 14 2 0 0 0 4 3 0 0 0 0 0 0 0 0 0 0 0
0 0 0 0 0 0 0 0 0 0 0 0 0 0 0 0 0 0 0 4 3 6 1 7 4 0 0 0 0 0 0 0 0 0 0 0 0 0 0 0 0 0 0
0 0 0 0 0 0 0 0 0 0 0 0 0 0 0 0 0 0 0 0 1 0 2 0 0 0 0 0 0 0 0 0 0 0 0 0 0 0 0 0 0 0 0
0 0 0 0 0 0 0 0 0 0 0 0 0 0 0 0 0 3 3 2 3 5 0 0 0 0 0 0 0 0 0 0 0 0 0 0 0 0 0 0 0 0 1
0 0 0 0 0 0 0 0 0 0 0 0 0 0 0 0 0 0 3 7 4 3 0 0 0 0 0 0 0 0 0 0 0 0 0 0 1 0 1 0 1 1 1
0 0 0 0 0 0 0 0 0 0 0 0 0 0 0 0 0 2 5 2 0 0 0 0 1 0 0 0 0 0 0 0 0 0 1 0 0 0 1 1 1 1 1
0 0 0 0 0 0 0 0 0 0 0 0 0 0 0 0 0 4 0 0 0 0 0 1 0 0 0 0 0 0 0 0 0 0 0 0 0 1 0 0 1 1 0
0 0 0 0 0 0 0 0 0 0 0 0 0 0 0 0 1 0 0 0 0 0 0 0 0 0 0 0 0 0 0 0 0 0 0 0 0 1 0 0 1 1 1
0 0 0 0 0 0 0 0 0 0 0 0 0 0 0 0 0 0 0 0 0 0 0 0 0 0 0 0 0 0 0 1 0 0 0 0 0 1 1 0 0 0 0
0 0 0 0 0 0 0 0 0 0 0 0 0 0 0 0 0 0 0 0 0 0 0 0 0 0 0 0 0 1 1 1 0 0 0 0 0 0 0 0 0 0 0
0 0 0 0 0 0 0 0 0 0 0 0 0 0 0 0 0 0 0 0 0 0 0 0 0 0 0 0 0 0 1 2 0 0 1 1 1 0 0 0 0 0 0
0 0 0 0 0 0 0 0 0 0 0 0 0 0 0 0 0 0 0 0 0 0 0 0 0 0 0 0 0 0 0 0 0 1 2 0 0 0 0 0 0 0 0
0 0 0 0 0 0 0 0 0 0 0 0 0 0 0 0 0 0 0 0 0 0 0 0 0 0 0 0 1 1 1 1 0 1 0 0 0 0 0 0 0 0 0
0 0 0 0 0 0 0 0 0 0 0 0 0 0 0 0 0 0 0 0 0 0 0 0 0 1 1 0 0 0 2 4 1 0 0 0 0 0 0 0 0 0 0
0 0 0 0 0 0 0 0 0 0 0 0 0 0 0 0 0 0 0 0 0 0 0 0 0 0 0 0 0 4 4 2 2 0 0 0 0 0 0 0 0 0 0
CIN
-0 -0 -0 -0 -0 -0 -0 -0 -0 -0 -0 -0 -0 -0 -0 -0 -0 -0 -0 -0 -0 -0 -0 -0 -0 -0 -0 -0 -0 -0 -0 -0 -0 -0 -0 -0 -0 -0 -0 -0 -0 -0 -0
-0 -0 -0 -0 -0 -0 -0 -0 -0 -0 -0 -0 -0 -0 -0 -0 -0 -0 -0 -0 -0 -0 -0 -0 -0 -0 -0 -0 -0 -0 -0 -0 -0 -0 -0 -0 -0 -0 -0 -0 -2 -0 -1
-0 -0 -0 -0 -0 -0 -0 -0 -0 -0 -0 -0 -0 -0 -0 -0 -0 -0 -0 -0 -0 -0 -0 -0 -0 -0 -0 -0 -0 -0 -0 -0 -2 -1 -0 -0 -0 -0 -0 -2 -1 -0 -0
-0 -0 -0 -0 -0 -0 -0 -0 -0 -0 -0 -0 -0 -0 -0 -0 -0 -0 -0 -0 -0 -0 -0 -0 -0 -0 -0 -0 -0 -1 -1 -0 -0 -0 -0 -0 -1 -0 -2 -0 -0 -0 -0
-0 -0 -0 -0 -0 -0 -0 -0 -0 -0 -0 -0 -0 -0 -0 -0 -0 -0 -0 -0 -0 -0 -0 -0 -0 -0 -0 -1 -2 -5 -2 -2 -0 -0 -0 -0 -0 -0 -0 -0 -0 -0 -0
-0 -0 -0 -0 -0 -0 -0 -0 -0 -0 -0 -0 -0 -0 -0 -0 -0 -0 -0 -0 -0 -0 -0 -0 -0 -0 -0 -2 -2 -2 -5 -3 -2 -1 -0 -0 -0 -0 -0 -0 -6 -1 -1
-0 -0 -0 -0 -0 -0 -0 -0 -0 -0 -0 -0 -0 -0 -0 -0 -0 -0 -0 -0 -0 -0 -0 -0 -0 -0 -0 -0 -0 -1 -0 -2 -2 -1 -0 -0 -0 -0 -13 -1 -1 -0 -0
-0 -0 -0 -0 -0 -0 -0 -0 -0 -0 -0 -0 -0 -0 -0 -0 -0 -0 -0 -0 -0 -0 -0 -0 -0 -0 -0 -4 -3 -10 -0 -0 -0 -0 -0 -0 -6 -6 -0 -0 -0 -1 -0
-0 -0 -0 -0 -0 -0 -0 -0 -0 -0 -0 -0 -0 -0 -0 -0 -0 -0 -0 -0 -0 -0 -0 -0 -4 -2 -1 -4 -2 -0 -0 -0 -0 -0 -0 -1 -0 -0 -1 -0 -0 -0 -0
-0 -0 -0 -0 -0 -0 -0 -0 -0 -0 -0 -0 -0 -0 -0 -0 -0 -0 -0 -0 -0 -0 -0 -0 -0 -2 -2 -2 -9 -0 -0 -0 -1 -0 -0 -0 -0 -0 -0 -0 -0 -0 -0
-0 -0 -0 -0 -0 -0 -0 -0 -0 -0 -0 -0 -0 -0 -0 -0 -0 -0 -0 -0 -0 -3 -0 -0 -0 -1 -2 -4 -4 -0 -0 -8 -0 -0 -0 -0 -0 -0 -0 -0 -0 -0 -0
-0 -0 -0 -0 -0 -0 -0 -0 -0 -0 -0 -0 -0 -0 -0 -0 -0 -0 -0 -1 -2 -0 -2 -0 -0 -2 -2 -1 -0 -1 -3 -2 -0 -0 -0 -0 -0 -0 -0 -0 -0 -0 -0
-0 -0 -0 -0 -0 -0 -0 -0 -0 -0 -0 -0 -0 -0 -0 -0 -0 -0 -0 -1 -1 -3 -4 -3 -2 -0 -0 -0 -0 -0 -0 -0 -0 -0 -0 -0 -0 -0 -0 -0 -0 -0 -0
-0 -0 -0 -0 -0 -0 -0 -0 -0 -0 -0 -0 -0 -0 -0 -0 -0 -0 -1 -0 -2 -3 -3 -0 -0 -0 -0 -0 -0 -0 -0 -0 -0 -0 -0 -0 -0 -0 -0 -0 -0 -0 -0
-0 -0 -0 -0 -0 -0 -0 -0 -0 -0 -0 -0 -0 -0 -0 -0 -0 -2 -3 -4 -4 -4 -4 -0 -0 -0 -0 -0 -0 -0 -0 -0 -0 -0 -0 -0 -0 -0 -0 -0 -0 -0 -0
-0 -0 -0 -0 -0 -0 -0 -0 -0 -0 -0 -0 -0 -0 -0 -0 -0 -1 -1 -2 -1 -1 -0 -0 -0 -0 -0 -0 -0 -0 -0 -0 -0 -0 -0 -0 -0 -0 -0 -0 -0 -0 -0
-0 -0 -0 -0 -0 -0 -0 -0 -0 -0 -0 -0 -0 -0 -0 -0 -0 -1 -2 -1 -0 -0 -0 -0 -0 -0 -0 -0 -0 -0 -0 -0 -0 -0 -0 -0 -0 -0 -0 -0 -0 -0 -0
-0 -0 -0 -0 -0 -0 -0 -0 -0 -0 -0 -0 -0 -0 -0 -0 -0 -1 -1 -0 -0 -0 -0 -0 -0 -0 -0 -0 -0 -0 -0 -0 -0 -0 -0 -0 -0 -0 -0 -0 -0 -0 -0
-0 -0 -0 -0 -0 -0 -0 -0 -0 -0 -0 -0 -0 -0 -0 -0 -1 -0 -0 -0 -0 -0 -0 -0 -0 -0 -0 -0 -0 -0 -0 -0 -0 -0 -0 -0 -0 -0 -0 -0 -0 -0 -0
-0 -0 -0 -0 -0 -0 -0 -0 -0 -0 -0 -0 -0 -0 -0 -0 -0 -0 -0 -0 -0 -0 -0 -0 -0 -0 -0 -0 -0 -0 -0 -0 -0 -0 -0 -0 -0 -0 -0 -0 -0 -0 -0
-0 -0 -0 -0 -0 -0 -0 -0 -0 -0 -0 -0 -0 -0 -0 -2 -0 -0 -0 -0 -0 -0 -0 -0 -0 -0 -0 -0 -0 -0 -0 -0 -0 -0 -0 -0 -0 -0 -0 -0 -0 -0 -0
-0 -0 -0 -0 -0 -0 -0 -0 -0 -0 -0 -0 -0 -0 -0 -0 -0 -0 -0 -0 -0 -0 -0 -0 -0 -0 -0 -0 -0 -0 -0 -0 -0 -0 -0 -0 -0 -0 -0 -0 -0 -0 -0
-0 -0 -0 -0 -0 -0 -0 -0 -0 -0 -0 -0 -0 -0 -0 -0 -0 -0 -0 -0 -0 -0 -0 -0 -0 -0 -0 -0 -0 -0 -0 -0 -0 -0 -0 -0 -0 -0 -0 -0 -0 -0 -0
-0 -0 -0 -0 -0 -0 -0 -0 -0 -0 -0 -0 -0 -0 -0 -0 -0 -0 -0 -0 -0 -0 -0 -0 -0 -0 -0 -0 -0 -0 -0 -0 -0 -0 -0 -0 -0 -0 -0 -0 -0 -0 -0
-0 -0 -0 -0 -0 -0 -0 -0 -0 -0 -0 -0 -0 -0 -0 -0 -0 -0 -0 -0 -0 -0 -0 -0 -0 -0 -0 -0 -0 -0 -0 -0 -0 -0 -0 -0 -0 -0 -0 -0 -0 -0 -0
-0 -0 -0 -0 -0 -0 -0 -0 -0 -0 -0 -0 -0 -0 -0 -0 -0 -0 -0 -0 -0 -0 -0 -0 -0 -0 -0 -0 -0 -0 -0 -0 -0 -0 -0 -0 -0 -0 -0 -0 -0 -0 -0
Wind_Speed
3 1 1 4 7 11 14 17 20 22 25 27 28 30 32 35 36 38 38 37 39 40 39 40 41 41 44 45 46 46 49 50 58 63 61 59 61 60 56 52 50 50 49
2 0 2 5 9 13 16 19 21 24 26 28 30 32 34 36 37 39 38 38 40 42 42 42 43 44 45 47 48 51 51 52 54 61 60 60 58 56 54 52 48 44 43
2 1 4 7 11 14 17 20 23 25 27 29 31 34 36 37 38 37 38 39 40 42 43 44 45 46 49 50 51 53 52 52 52 55 58 53 52 49 50 45 43 44 44
1 2 5 9 12 15 18 21 24 26 29 31 32 34 35 37 37 37 39 40 41 42 44 45 46 47 50 51 53 53 53 54 52 51 51 49 46 43 40 45 50 43 40
1 4 7 10 13 16 19 23 25 27 29 30 32 34 36 37 37 40 41 42 43 45 46 46 46 47 49 51 52 54 51 49 48 48 47 43 46 45 44 35 33 27 29
2 5 8 11 14 17 21 24 26 28 30 31 34 36 38 38 40 42 43 43 44 47 50 48 47 48 49 52 50 48 45 45 47 43 45 43 36 36 35 33 31 33 32
4 6 9 12 15 19 22 24 27 29 31 34 35 37 39 40 40 41 42 43 45 46 48 50 50 48 50 47 46 44 42 40 41 40 33 29 27 25 22 25 24 21 23
4 7 10 13 17 20 23 25 28 30 33 34 36 38 39 39 40 42 44 43 45 45 48 48 48 49 45 47 46 42 44 40 35 28 26 22 19 21 23 20 21 21 22
5 8 11 14 18 20 24 27 29 31 33 35 36 38 39 40 41 43 45 45 46 47 46 46 45 44 46 46 44 44 41 35 27 25 18 18 22 18 18 19 18 19 21
6 9 13 15 18 22 25 28 29 32 34 35 37 37 38 40 42 43 44 45 48 49 47 44 42 45 45 42 44 41 38 23 25 29 19 17 18 17 16 16 16 18 19
8 11 14 17 20 23 26 28 31 33 35 37 37 38 39 40 42 43 43 46 48 49 48 45 43 43 42 44 40 35 22 22 35 15 17 17 17 16 17 17 17 18 18
10 13 16 19 21 24 27 29 32 34 37 38 40 41 39 40 41 42 44 45 46 47 44 43 41 43 44 39 37 24 31 29 16 17 17 16 15 16 17 17 16 17 18
12 15 18 20 23 26 28 31 34 35 38 40 41 42 43 41 42 43 43 44 44 42 40 41 42 40 37 29 28 22 30 21 21 20 23 17 18 16 16 16 16 16 19
14 16 19 21 24 26 28 31 34 37 39 41 42 44 45 45 45 43 43 43 41 40 40 38 38 36 29 24 16 21 20 27 30 27 25 22 22 22 15 16 15 15 20
15 17 20 23 26 28 30 31 34 34 36 41 42 43 46 47 44 45 44 43 42 41 41 37 35 33 30 29 26 23 28 31 32 31 30 30 29 30 25 20 15 16 18
17 19 22 25 28 29 32 34 32 34 36 37 39 41 41 41 43 43 41 42 42 40 37 36 31 31 29 28 27 30 30 32 32 31 30 27 26 33 43 38 30 16 13
19 21 24 26 28 31 33 36 40 39 37 38 40 41 41 42 42 40 40 41 38 38 34 29 30 26 25 26 27 25 23 23 24 26 23 22 24 23 20 38 34 30 17
20 22 25 27 30 32 34 36 39 42 44 43 40 41 41 41 39 39 40 37 36 34 28 20 21 23 23 20 22 24 27 29 31 29 28 23 25 24 28 33 33 30 28
22 25 26 28 31 33 35 37 39 40 42 42 42 40 39 38 37 37 35 33 30 18 17 19 17 17 20 23 23 22 20 22 24 27 23 20 17 17 9 13 25 28 28
23 26 28 31 33 35 36 38 40 41 42 42 42 41 39 38 37 37 33 30 14 11 11 12 15 13 13 15 16 17 18 15 13 13 10 9 9 13 14 7 23 26 25
25 28 30 32 34 36 38 39 40 41 41 41 40 38 38 37 35 32 29 14 8 8 9 8 9 11 15 17 19 17 13 10 9 9 9 8 8 7 5 8 16 21 22
27 30 31 33 34 37 37 39 40 40 41 40 39 37 36 33 30 19 20 14 11 7 7 8 10 12 15 17 17 13 9 11 12 11 10 8 5 5 5 4 5 20 22
29 31 32 34 35 36 38 38 39 40 39 38 36 35 33 31 26 22 18 14 11 9 7 8 10 13 14 12 9 7 8 10 10 10 9 6 5 6 8 4 1 15 22
30 31 33 35 37 38 39 39 39 38 37 35 33 32 30 26 23 20 17 13 11 8 6 8 9 10 11 9 7 9 7 7 8 7 3 9 13 14 7 6 9 7 13
30 33 34 36 37 38 38 38 38 37 35 33 31 29 25 23 21 19 16 15 11 8 6 7 8 10 9 8 10 10 9 12 11 6 13 19 20 17 13 22 25 26 24
31 33 35 36 37 38 38 38 37 35 33 31 27 24 23 21 19 18 15 13 11 8 6 7 8 9 8 7 8 8 12 9 13 13 17 20 20 18 21 25 26 26 24
Wind_Direction
174 168 357 347 348 347 345 344 343 343 343 342 342 341 340 339 339 338 337 337 336 335 334 332 331 330 329 329 328 327 323 321 317 317 318 319 318 317 315 314 312 310 308
187 215 346 347 343 342 342 343 343 342 343 342 341 340 339 339 338 337 337 337 336 334 333 332 330 330 328 328 328 325 323 322 319 318 319 320 319 319 318 316 315 315 314
182 312 335 338 340 340 341 341 342 342 341 341 341 339 338 338 338 339 338 336 335 335 334 332 331 330 328 328 327 325 324 324 323 321 320 321 322 324 322 323 322 319 318
215 327 334 336 338 339 340 341 341 341 341 341 341 340 340 340 339 339 337 336 336 335 335 334 332 331 329 329 328 327 327 325 325 323 323 325 326 330 330 326 323 325 324
278 326 330 334 337 339 340 340 341 341 341 341 340 341 341 340 340 338 338 337 336 336 335 334 334 333 331 331 330 329 328 327 327 326 325 330 330 331 330 332 328 319 324
306 323 330 334 337 338 340 341 341 341 341 341 341 340 340 340 339 338 338 338 338 336 335 336 335 334 332 331 331 330 330 329 328 333 330 330 331 334 333 330 329 333 292
318 327 332 335 337 338 340 340 340 340 341 340 340 340 339 339 340 339 339 338 338 338 336 335 334 334 333 333 332 332 331 335 331 333 331 332 327 322 309 296 299 307 306
330 333 335 337 338 339 340 340 340 341 340 340 340 340 339 340 341 340 339 339 338 338 336 336 335 334 336 335 335 337 335 336 339 339 336 325 315 302 296 309 308 308 323
339 337 339 339 339 340 340 340 341 340 340 340 340 340 341 341 342 341 341 340 338 338 338 338 337 338 337 337 339 338 339 342 345 341 329 307 296 314 324 333 328 311 311
345 344 343 344 343 341 341 341 342 341 341 341 341 343 343 342 343 343 343 341 339 338 339 340 341 340 340 341 341 341 342 344 346 351 342 341 341 340 330 340 330 318 322
353 350 347 345 344 343 343 343 342 342 342 342 343 344 344 344 344 344 344 342 340 340 340 342 342 342 343 341 344 346 347 304 348 311 347 346 350 348 348 346 343 340 325
356 350 347 346 346 345 344 344 344 343 342 342 342 343 345 345 345 345 344 343 342 342 342 343 343 343 342 346 335 353 298 307 350 353 351 348 339 337 338 338 334 339 340
353 350 349 348 348 347 345 344 343 344 343 342 343 343 344 345 345 345 344 344 344 344 345 344 344 346 348 355 355 295 296 2 0 358 357 346 347 327 323 340 345 347 351
355 352 351 349 348 348 347 346 344 344 343 343 343 342 343 343 344 345 345 345 346 346 346 347 347 349 356 359 357 5 5 1 357 358 358 355 356 358 341 353 347 351 3
357 355 352 350 348 347 347 347 346 347 345 343 343 343 342 343 344 345 346 346 347 347 346 348 351 355 358 360 3 5 2 358 357 357 358 358 359 0 2 5 1 3 10
355 352 350 348 347 346 345 345 349 348 348 347 346 345 344 344 345 346 347 347 347 349 349 350 357 357 359 1 2 359 359 357 358 358 359 1 2 359 342 347 2 14 5
355 352 349 348 347 346 346 345 343 346 349 348 347 346 346 345 346 347 349 349 351 350 354 359 357 3 3 2 1 2 2 3 2 2 2 3 5 7 357 319 315 310 305
357 354 350 349 347 347 346 346 345 344 344 345 348 348 348 348 348 350 350 352 353 354 3 7 6 5 4 4 3 2 360 359 358 360 2 6 7 10 7 315 314 311 310
355 352 351 350 348 348 347 346 346 345 345 345 346 348 349 349 350 351 354 356 358 6 8 8 8 7 4 2 2 1 360 1 1 2 8 10 10 12 344 299 300 307 311
355 353 351 349 348 347 347 346 346 346 346 346 347 348 349 350 351 352 355 359 5 359 0 2 6 1 355 357 358 358 359 358 359 1 351 345 347 11 13 317 296 302 306
354 352 350 349 348 348 347 347 346 346 346 347 347 349 350 351 352 354 356 288 318 325 349 330 338 352 359 1 2 1 356 343 325 317 310 321 348 355 336 289 284 292 300
353 351 350 350 349 348 348 348 347 347 347 347 348 350 351 354 357 288 285 284 290 310 314 342 349 356 0 2 4 359 328 304 298 298 301 306 325 351 5 6 271 295 306
352 351 351 350 350 349 348 349 348 348 348 349 350 352 354 356 292 287 281 282 287 295 321 346 355 359 5 3 357 336 315 302 296 293 297 313 356 26 44 55 86 290 315
353 352 350 350 350 349 349 349 348 349 350 351 353 355 357 292 287 282 279 280 284 294 326 355 359 353 355 346 329 317 312 305 297 298 331 44 43 45 63 72 78 95 50
353 351 351 350 350 349 349 349 350 351 352 354 356 358 290 286 283 280 278 279 280 293 325 351 1 3 356 335 320 312 312 304 303 53 49 43 44 50 63 41 31 22 9
353 352 351 350 350 350 349 350 351 353 354 356 0 289 286 282 279 278 277 277 281 293 318 357 358 355 344 352 346 332 319 321 59 61 56 51 54 57 50 39 32 22 4